Probability
0 0 0 0 0 0 0 0 0 0 0 0 0 0 0 0 0 0 0 0 0 0 0 0 0 0 0 0 0 0 0 0 0 0 0 0 0 0 0 0 0 0 0 0
0 0 0 0 0 0 0 0 0 0 0 0 0 0 0 0 0 0 0 0 0 0 0 0 0 0 0 0 0 0 0 0 0 0 0 0 0 0 0 0 0 0 0 0
0 0 0 0 0 0 0 0 0 0 0 0 0 0 0 0 0 0 0 0 0 0 0 0 0 0 0 0 0 0 0 0 0 0 0 0 0 0 0 0 0 0 0 0
0 0 0 0 0 0 0 0 0 0 0 0 0 0 0 0 0 0 0 0 0 0 0 0 0 0 0 0 0 0 0 0 0 0 0 0 0 0 0 0 0 0 0 0
0 0 0 0 0 0 0 0 0 0 0 0 0 0 0 0 0 0 0 0 0 0 0 0 0 0 0 0 0 0 0 0 0 0 0 0 0 0 0 0 0 0 0 0
0 0 0 0 0 0 0 0 0 0 0 0 0 0 0 0 0 0 0 0 0 0 0 0 0 0 0 0 0 0 0 0 0 0 0 0 0 0 0 0 0 0 0 0
0 0 0 0 0 0 0 0 0 0 0 0 0 0 0 0 0 0 0 0 0 0 0 0 0 0 0 0 0 0 0 0 0 0 0 0 0 0 0 0 0 0 0 0
0 0 0 0 0 0 0 0 0 0 0 0 0 0 0 0 0 0 0 0 0 0 0 0 0 0 0 0 0 0 0 0 0 0 0 0 0 0 0 0 0 0 0 0
0 0 0 0 0 0 0 0 0 0 0 0 0 0 0 0 0 0 0 0 0 0 0 0 0 0 0 0 0 0 0 0 0 0 0 0 0 0 0 0 0 0 0 0
0 0 0 0 0 0 0 0 0 0 0 0 0 0 0 0 0 0 0 0 0 0 0 0 0 0 0 0 0 0 0 0 0 0 0 0 0 0 0 0 0 0 0 0
0 0 0 0 0 0 0 0 0 0 0 0 0 0 0 0 0 0 0 0 0 0 0 0 0 0 0 0 0 0 0 0 0 0 0 0 0 0 0 0 0 0 0 0
0 0 0 0 0 0 0 0 0 0 0 0 0 0 0 0 0 0 0 0 0 0 0 0 0 0 0 0 0 0 0 0 0 0 0 0 0 0 0 0 0 0 0 0
0 0 0 0 0 0 0 0 0 0 0 0 0 0 0 0 0 0 0 0 0 0 0 0 0 0 0 0 0 0 0 0 0 0 0 0 0 0 0 0 0 0 0 0
0 0 0 0 0 0 0 0 0 0 0 0 0 0 0 0 0 0 0 0 0 0 0 0 0 0 0 0 0 0 0 0 0 0 0 0 0 0 0 0 0 0 0 0
0 0 0 0 0 0 0 0 0 0 0 0 0 0 0 0 0 0 0 0 0 0 0 0 0 0 0 0 0 0 0 0 0 0 0 0 0 0 0 0 0 0 0 0
0 0 0 0 0 0 0 0 0 0 0 0 0 0 0 0 0 0 0 0 0 0 0 0 0 0 0 0 0 0 0 0 0 0 0 0 0 0 0 0 0 0 0 0
0 0 0 0 0 0 0 0 0 0 0 0 0 0 0 0 0 0 0 0 0 0 0 0 0 0 0 0 0 0 0 0 0 0 0 0 0 0 0 0 0 0 0 0
0 0 0 0 0 0 0 0 0 0 0 0 0 0 0 0 0 0 0 0 0 0 0 0 0 0 0 0 0 0 0 0 0 0 0 0 0 0 0 0 0 0 0 0
0 0 0 0 0 0 0 0 0 0 0 0 0 0 0 0 0 0 0 0 0 0 0 0 0 0 0 0 0 0 0 0 0 0 0 0 0 0 0 0 0 0 0 0
0 0 0 0 0 0 0 0 0 0 0 0 0 0 0 0 0 0 0 0 0 0 0 0 0 0 0 0 0 0 0 0 0 0 0 0 0 0 0 0 0 0 0 0
0 0 0 0 0 0 0 0 0 0 0 0 0 0 0 0 0 0 0 0 0 0 0 0 0 0 0 0 0 0 0 0 0 0 0 0 0 0 0 0 0 0 0 0
0 0 0 0 0 0 0 0 0 0 0 0 0 0 0 0 0 0 0 0 0 0 0 0 0 0 0 0 0 0 0 0 0 0 0 0 0 0 0 0 0 0 0 0
0 0 0 0 0 0 0 0 0 0 0 0 0 0 0 0 0 0 0 0 0 0 0 0 0 0 0 0 0 0 0 0 0 0 0 0 0 0 0 0 0 0 0 0
0 0 0 0 0 0 0 0 0 0 0 0 0 0 0 0 0 0 0 0 0 0 0 0 0 0 0 0 0 0 0 0 0 0 0 0 0 0 0 0 0 0 0 0
0 0 0 0 0 0 0 0 0 0 0 0 0 0 0 0 0 0 0 0 0 0 0 0 0 0 0 0 0 0 0 0 0 0 0 0 0 0 0 0 0 0 0 0
0 0 0 0 0 0 0 0 0 0 0 0 0 0 0 0 0 0 0 0 0 0 0 0 0 0 0 0 0 0 0 0 0 0 0 0 0 0 0 0 0 0 0 0
Wind_Speed
3 4 7 12 12 7 6 6 5 6 4 7 10 12 10 7 8 10 11 13 16 16 8 8 8 8 7 7 7 8 10 10 9 7 6 6 5 4 5 5 6 7 7 7
4 7 12 6 4 4 4 5 7 6 3 6 7 11 11 7 10 12 15 18 19 13 9 12 11 9 9 9 9 9 10 10 8 5 5 5 6 5 4 4 5 6 7 7
11 8 5 7 6 6 7 8 9 7 2 2 4 9 9 9 8 9 12 14 14 18 19 17 15 13 11 12 12 11 10 10 8 9 9 9 6 4 4 4 4 5 6 7
8 6 5 6 8 10 8 8 8 6 3 5 4 8 8 8 9 12 16 14 15 15 17 17 16 16 15 13 10 10 10 9 11 12 13 14 9 7 5 4 4 5 6 7
10 7 8 9 9 12 8 3 4 3 4 4 3 7 9 5 9 13 16 17 17 16 19 21 20 18 13 11 11 10 10 10 12 11 12 12 9 7 7 6 8 7 6 6
6 5 8 9 5 8 6 6 6 5 3 6 9 10 11 8 11 13 15 13 13 14 16 16 13 12 11 10 11 11 12 11 12 11 10 11 15 15 14 11 9 7 5 5
4 5 4 4 6 3 6 7 2 3 3 11 6 9 13 12 12 13 15 12 9 11 14 15 17 17 16 15 14 13 14 13 13 12 11 12 15 18 18 15 12 11 7 5
8 9 11 9 10 11 9 12 11 9 9 7 4 13 12 10 9 9 10 9 6 10 14 17 19 18 17 16 15 15 15 13 14 13 12 11 12 11 10 10 11 10 7 6
12 10 4 8 5 14 8 8 7 5 1 5 10 10 10 6 9 11 10 8 8 12 15 16 16 16 16 17 16 16 15 13 14 13 13 12 11 10 11 9 8 7 7 7
10 6 3 3 3 2 8 9 6 6 6 8 10 9 9 10 14 13 11 12 12 10 11 12 14 15 14 14 11 12 13 13 13 13 13 12 11 10 11 11 11 10 9 9
8 8 3 4 12 13 9 8 8 7 7 8 9 12 10 13 12 11 13 14 12 12 14 14 12 11 11 10 11 12 13 12 12 13 13 13 12 10 11 11 11 11 9 10
9 6 6 9 6 4 7 9 10 9 9 8 11 15 7 10 9 9 12 10 8 10 11 10 10 11 12 13 13 14 14 13 13 13 13 13 13 12 12 12 11 11 10 10
11 8 4 5 3 3 7 8 10 6 5 9 13 14 1 2 5 8 9 8 7 9 10 10 12 14 15 15 15 14 14 14 13 13 14 14 14 15 14 13 12 11 11 10
13 9 13 19 10 11 10 12 14 13 11 16 23 21 6 5 7 8 8 7 8 10 12 13 14 15 16 16 16 16 15 14 14 14 15 16 16 16 14 13 13 12 12 11
10 12 15 19 11 10 13 15 20 24 26 21 26 27 19 12 13 11 8 6 7 9 13 17 18 17 16 16 16 16 16 16 16 16 16 16 13 12 12 12 12 11 11 11
9 9 12 18 15 10 8 17 25 30 23 28 29 38 14 8 10 11 11 11 12 14 17 19 19 18 19 20 19 18 19 17 16 17 16 13 13 12 13 13 12 12 11 9
7 7 9 19 15 5 18 31 22 17 19 15 29 39 14 11 13 18 17 14 17 19 20 21 22 23 22 23 22 22 19 16 15 14 13 13 14 14 13 12 12 13 12 10
13 12 8 9 10 23 25 18 19 23 23 21 21 18 9 15 17 16 14 15 19 20 19 19 19 20 20 17 16 14 13 15 15 14 13 14 14 13 12 12 13 12 9 10
17 16 11 12 22 21 22 12 14 19 28 31 31 28 22 13 9 18 15 16 19 18 17 17 18 17 15 16 16 15 15 15 15 16 16 15 15 14 14 14 13 10 9 10
18 18 15 15 16 16 19 7 13 12 25 23 17 25 25 11 14 25 15 14 17 14 11 10 9 9 13 14 16 16 16 16 18 17 15 14 14 15 15 15 11 8 8 9
19 19 23 23 21 14 10 5 11 15 18 3 14 19 17 16 20 13 4 4 6 6 5 7 10 11 12 15 17 17 16 18 15 12 11 12 13 14 12 11 8 8 8 7
15 13 15 15 19 18 7 10 15 9 1 1 2 4 6 7 5 3 3 2 2 2 4 6 8 8 9 13 15 15 15 12 10 12 12 12 12 10 9 10 9 8 9 8
12 11 8 11 10 3 4 4 1 2 2 0 1 1 1 1 1 2 3 4 5 6 6 5 8 9 7 9 11 13 10 10 12 12 11 10 10 9 9 10 10 8 8 7
5 2 5 6 6 3 2 2 1 2 2 1 1 2 2 3 3 4 4 4 5 5 5 5 8 8 6 5 5 6 9 10 12 11 10 9 9 8 7 6 7 8 8 8
4 5 4 4 2 1 3 4 5 4 3 4 4 4 4 4 4 3 3 4 4 4 4 4 6 7 6 6 6 6 8 9 9 8 7 7 7 7 7 6 5 7 5 7
5 6 6 5 6 6 4 6 7 6 5 4 4 4 4 3 3 4 4 3 4 4 4 5 6 6 6 6 6 5 5 7 9 7 6 5 5 5 5 5 2 5 6 9
Wind_Direction
108 107 193 203 197 192 178 189 226 251 221 182 222 249 258 206 218 231 225 218 219 219 200 181 181 177 173 174 169 163 153 150 142 134 128 116 104 92 80 71 76 88 95 97
83 235 224 196 198 218 225 245 262 279 250 198 241 259 262 229 215 222 223 222 220 208 187 189 185 183 182 181 178 173 167 163 162 143 129 122 119 102 84 80 73 77 92 99
183 221 188 167 190 204 229 223 236 245 298 277 298 288 256 253 229 238 233 228 219 205 196 190 188 188 185 187 184 179 174 168 155 139 126 119 106 98 90 90 79 72 87 92
219 230 158 168 197 189 237 221 214 221 218 262 217 273 258 246 251 246 244 234 225 209 196 189 188 190 191 188 182 178 172 163 154 150 150 149 148 145 146 138 117 97 90 95
221 197 183 194 200 180 212 186 182 204 208 256 228 255 266 240 253 253 246 238 228 210 195 192 190 189 185 179 179 175 167 163 161 163 162 153 140 131 131 126 118 107 94 93
227 208 198 205 179 168 134 76 53 44 79 256 215 225 261 207 218 240 248 240 225 207 195 190 181 172 174 174 174 172 169 169 168 166 165 157 146 143 145 145 137 126 115 104
240 234 218 149 119 122 136 113 29 306 266 246 211 226 248 223 223 229 248 256 232 200 185 180 177 179 179 178 176 174 173 172 171 168 167 164 158 155 156 155 151 146 142 138
194 240 203 190 170 169 186 164 176 206 230 262 238 235 250 245 254 257 263 272 240 193 187 188 186 183 181 179 177 176 177 174 173 171 168 164 163 159 157 157 154 154 151 147
194 231 210 200 182 152 169 211 184 166 244 271 255 263 291 261 269 261 260 262 230 199 192 190 186 184 181 181 181 179 177 174 175 172 166 166 167 163 157 151 146 144 145 145
169 215 220 174 118 197 160 155 133 175 215 250 260 243 233 217 229 239 245 244 234 202 193 189 187 186 184 182 177 176 177 176 173 171 170 170 170 164 158 154 155 155 154 148
185 195 185 166 193 187 164 176 181 178 186 198 260 253 212 205 212 222 236 239 225 199 194 192 190 184 179 175 176 179 179 173 174 174 172 167 168 163 159 161 162 161 157 154
191 176 218 223 229 213 194 185 169 180 216 213 248 258 198 199 214 221 239 243 214 195 190 186 180 176 181 184 185 186 185 182 179 174 171 169 168 164 166 167 166 163 161 161
156 165 224 295 255 214 211 204 202 210 195 216 239 261 224 200 240 237 240 243 204 185 181 178 181 187 191 191 191 190 189 184 177 173 172 170 172 172 173 171 167 166 164 162
164 166 201 225 209 179 200 209 202 199 225 238 241 254 213 226 238 242 236 226 201 190 187 188 194 197 196 194 193 191 190 183 177 176 176 178 180 178 175 170 169 170 169 169
178 201 220 238 219 178 196 204 208 213 223 233 249 254 243 208 224 233 232 218 200 199 198 201 202 201 197 195 194 192 189 184 181 180 183 184 177 172 168 169 170 170 172 175
195 213 224 244 233 203 216 222 216 219 229 237 251 258 249 220 226 237 232 216 211 212 212 211 208 202 199 198 195 191 190 185 181 185 186 176 171 172 173 173 171 172 175 173
193 197 209 243 238 208 235 233 221 221 221 218 239 253 252 235 231 236 235 223 220 221 218 214 209 206 203 199 193 192 188 177 179 183 178 174 174 177 178 173 173 179 179 175
194 203 216 242 224 231 241 238 214 223 233 228 241 254 230 228 240 244 236 227 231 228 224 218 213 209 205 194 187 179 169 172 178 179 179 177 177 180 176 176 183 183 177 184
203 207 217 228 243 250 261 236 194 213 239 232 235 249 251 242 278 270 246 233 239 234 225 219 212 205 190 180 174 165 168 171 177 184 185 183 180 180 179 185 188 182 179 188
207 210 221 226 236 236 249 216 175 175 248 242 218 241 249 236 248 261 254 234 239 238 225 211 185 165 165 166 158 161 170 175 187 189 185 180 180 182 187 189 184 177 183 192
202 210 222 232 240 244 250 177 140 185 239 225 196 225 235 223 234 266 305 259 247 237 208 165 152 157 162 156 156 166 172 188 188 172 167 175 182 186 186 181 174 171 178 180
198 209 220 227 236 241 192 154 182 211 83 127 228 241 238 239 273 324 1 9 41 80 102 125 131 132 137 150 157 168 184 179 153 158 169 177 181 180 174 173 173 172 176 186
202 202 200 211 227 236 154 181 125 92 129 21 274 298 182 156 38 46 54 55 57 71 79 89 111 112 123 149 159 171 169 146 152 162 172 173 171 174 171 174 173 170 177 190
218 175 185 202 214 194 179 143 104 84 106 67 66 70 94 107 96 88 84 76 73 71 77 93 111 119 126 135 139 141 138 145 152 163 165 162 165 168 167 170 172 176 185 193
190 166 181 211 195 166 230 197 157 133 111 83 60 54 68 94 87 90 90 86 85 80 73 94 114 121 119 108 97 105 129 138 144 149 150 154 161 164 167 172 182 185 191 193
189 180 179 206 190 186 196 175 160 141 134 125 103 71 50 68 93 91 86 83 89 89 86 90 93 102 105 104 98 97 120 135 138 142 150 155 154 154 156 157 156 210 193 207